Regional Weather Roundup
Issued by NWS

Home | Current Version | Previous Version | Text Only | Print | Product List | Glossary On
Versions: 1 2 3 4 5 6 7 8 9 10 11 12 13 14 15 16 17 18 19 20 21 22 23 24 25 26 27 28 29 30 31 32 33 34 35 36 37 38 39 40 41 42 43 44 45 46 47 48 49 50
000
ASUS42 KFFC 110603
RWRGA
WEATHER ROUNDUP FOR GEORGIA
NATIONAL WEATHER SERVICE PEACHTREE CITY GA
100 AM EST THU FEB 11 2016

NOTE: "FAIR" INDICATES FEW OR NO CLOUDS BELOW 12,000 FEET WITH NO
SIGNIFICANT WEATHER AND/OR OBSTRUCTIONS TO VISIBILITY.

* = USE WITH CAUTION. THE STATIONS MARKED WITH AN ASTERISK MAY NOT
REPORT WEATHER SUCH AS PRECIPITATION, FOG, OR THUNDER AND ARE NOT
QUALITY CONTROLLED BY NWS.

THE REMARK "TC" DENOTES TEMPERATURE READING IN DEGREES CELSIUS.

GAZ001>058-110700-
NORTH GEORGIA

CITY           SKY/WX    TMP DP  RH WIND       PRES   REMARKS
ATLANTA        MOCLDY    32  11  41 NW7       30.16F WCI  26
6HR MIN TEMP:  32; 6HR MAX TEMP:  36;

ATHENS         CLOUDY    31  14  49 W7        30.15S WCI  24
6HR MIN TEMP:  30; 6HR MAX TEMP:  33;

CHAMBLEE       CLOUDY    32  13  45 W6        30.15F WCI  26
6HR MIN TEMP:  31; 6HR MAX TEMP:  33;

PEACHTREE CITY CLEAR     25  16  68 CALM      30.18F
6HR MIN TEMP:  25; 6HR MAX TEMP:  37;

ROME           CLOUDY    32  15  49 CALM      30.17F
WEST ATLANTA   CLOUDY    32  11  41 W6        30.17S WCI  26
6HR MIN TEMP:  32; 6HR MAX TEMP:  35;

GAINESVILLE    CLOUDY    28  15  58 W6        30.13S WCI  22
6HR MIN TEMP:  27; 6HR MAX TEMP:  31;

CARTERSVILLE   CLOUDY    31  15  52 CALM      30.18S
6HR MIN TEMP:  31; 6HR MAX TEMP:  33;



CITY           SKY/WX    TMP DP  RH WIND       PRES   REMARKS
MARIETTA       CLOUDY    32  12  43 W8        30.15S WCI  25
BLAIRSVILLE*     N/A     23   3  43 CALM      30.10F
$$

GAZ059>098-102>109-110700-
CENTRAL GEORGIA

CITY           SKY/WX    TMP DP  RH WIND       PRES   REMARKS
AUGUSTA-BUSH   CLEAR     33  11  39 W5        30.18S WCI  29
6HR MIN TEMP:  28; 6HR MAX TEMP:  36;

COLUMBUS       PTCLDY    31  17  56 CALM      30.20F
6HR MIN TEMP:  31; 6HR MAX TEMP:  40;

MACON          PTCLDY    32  15  49 W3        30.19F
6HR MIN TEMP:  31; 6HR MAX TEMP:  38;

ROBINS AFB     PTCLDY    35  11  38 W3        30.19F


CITY           SKY/WX    TMP DP  RH WIND       PRES   REMARKS
LAGRANGE*      PTCLDY    29  24  84 CALM      30.19R
SYLVANIA*      CLEAR     32  26  80 NW6       30.20R WCI  26
MILLEDGEVILLE* MOCLDY    32  18  55 CALM      30.19S
$$

GAZ099>101-110>166-110700-
SOUTH GEORGIA

CITY           SKY/WX    TMP DP  RH WIND       PRES   REMARKS
SAVANNAH       CLEAR     31  20  63 W6        30.20F WCI  25
6HR MIN TEMP:  31; 6HR MAX TEMP:  37;

VALDOSTA       CLEAR     32  23  69 CALM      30.23S
6HR MIN TEMP:  32; 6HR MAX TEMP:  37;

ALMA           CLEAR     33  21  61 W5        30.23R WCI  29
6HR MIN TEMP:  31; 6HR MAX TEMP:  39;

ST SIMONS      CLEAR     38  23  55 W7        30.22R WCI  33
6HR MIN TEMP:  38; 6HR MAX TEMP:  42;

FT STEWART     CLEAR     34  20  55 W5        30.19S WCI  30
ALBANY         CLEAR     30  21  69 CALM      30.24S
HUNTER AFB     CLEAR     33  20  59 W8        30.18S WCI  26
MOODY AFB      CLEAR     37  18  47 SW2       30.22R
BRUNSWICK      CLEAR     36  25  64 W6        30.23R WCI  31


CITY           SKY/WX    TMP DP  RH WIND       PRES   REMARKS
BAINBRIDGE*    CLEAR     34  28  80 CALM      30.24R
MOULTRIE*      CLEAR     36  23  60 CALM      30.23S
VIDALIA*       CLEAR     32  21  64 SW3       30.21S
WAYCROSS*      CLEAR     37  24  60 W3        30.23S
DOUGLAS*       CLEAR     36  23  60 W3        30.25R
$$



USA.gov is the U.S. government's official web portal to all federal, state and local government web resources and services.